Location: Bilsen
(53.7722°N, 9.8765°E)
Time: 14:49:42
(UTC+00:00)

CZ-2C R/B - Pass Details

Date: 18 February 2020
Orbit: 668 x 784 km, 98.1° (Epoch: 27 March)

Event Time Altitude Azimuth Distance (km) Brightness Sun altitude
Rises 05:27:46 0° 8° (N) 3,290 5.8 -10.5°
Reaches altitude 10° 05:30:34 10° 354° (N) 2,357 4.9 -10.1°
Maximum altitude 05:34:27 22° 306° (NW) 1,675 3.8 -9.5°
Drops below altitude 10° 05:38:17 10° 257° (WSW) 2,328 4.4 -8.9°
Enters shadow 05:38:42 - 254° (WSW) 2,452 4.5 -8.9°
